Berlin Tegel, Germany

7:06 AM CEST on July 25, 2017 (GMT +0200)
Tegel

Weather History for EDDT - May, 2013

Change the Weather History Date:

Sunday, May 12, 2013

  Actual Average Record
Temperature  
Mean Temperature 54 °F -  
Max Temperature 64 °F 67 °F 84 °F (1998)
Min Temperature 44 °F 49 °F 39 °F (2005)
Degree Days  
Heating Degree Days 11    
Growing Degree Days 4 (Base 50)    
Moisture  
Dew Point 47 °F    
Average Humidity 78    
Maximum Humidity 100    
Minimum Humidity 36    
Precipitation  
Precipitation 0.04 in - - ()
Sea Level Pressure  
Sea Level Pressure 29.90 in    
Wind  
Wind Speed 6 mph ()    
Max Wind Speed 16 mph    
Max Gust Speed -    
Visibility 8.4 miles    
Events Fog , Rain    
Averages and records for this station are not official NWS values.
T = Trace of Precipitation, MM = Missing Value Source: Averaged Metar Reports

Daily Weather History Graph

Daily Weather History Graph

Search for Another Location

Airport or City:

Trip Planner

Search our weather history database for the weather conditions in past years. The results will help you decide how hot, cold, wet, or windy it might be!

Date:

Astronomy

May. 12, 2013 Rise Set
Actual Time 5:15 AM CEST 8:52 PM CEST
Civil Twilight 4:32 AM CEST 9:34 PM CEST
Nautical Twilight 3:35 AM CEST 10:33 PM CEST
Astronomical Twilight 2:06 AM CEST 12:05 AM CEST
Moon 6:51 AM CEST (5/12) 11:10 PM CEST (5/12)
Length of Visible Light 17h 01m
Length of Day
15h 36m
Waxing Crescent, 5% of the Moon is Illuminated
May 12
Waxing Crescent
May 18
First Quarter
May 25
Full
May 31
Last Quarter
Jun 8
New

Hourly Weather History & Observations

Time (CEST) Temp. Windchill Dew Point Humidity Pressure Visibility Wind Dir Wind Speed Gust Speed Precip Events Conditions
12:00 AM 53 °F - 49 °F 81% 29.92 in 19 mi SW 6.7 mph - -   Scattered Clouds
12:20 AM 51.8 °F - 48.2 °F 88% 29.92 in - SSW 5.8 mph - N/A   Clear
12:50 AM 51.8 °F - 48.2 °F 88% 29.92 in - SW 3.5 mph - N/A   Clear
1:00 AM 51 °F - 47 °F 83% 29.92 in 19 mi SW 2.2 mph - -   Clear
1:20 AM 51.8 °F - 48.2 °F 88% 29.92 in - West 4.6 mph - N/A   Clear
1:50 AM 48.2 °F - 46.4 °F 93% 29.92 in - West 6.9 mph - N/A   Clear
2:00 AM 49 °F - 46 °F 85% 29.92 in 16 mi West 6.7 mph - -   Partly Cloudy
2:20 AM 48.2 °F - 46.4 °F 93% 29.92 in 6.2 mi West 4.6 mph - N/A Fog Shallow Fog
2:50 AM 48.2 °F - 48.2 °F 100% 29.89 in 6.2 mi West 3.5 mph - N/A Fog Shallow Fog
3:00 AM 49 °F - 47 °F 91% 29.91 in 16 mi West 2.2 mph - - Fog Patches of Fog
3:20 AM 48.2 °F - 46.4 °F 93% 29.89 in 6.2 mi West 1.2 mph - N/A Fog Shallow Fog
3:50 AM 46.4 °F - 46.4 °F 100% 29.89 in 6.2 mi Variable 1.2 mph - N/A Fog Shallow Fog
4:00 AM 47 °F - 45 °F 92% 29.91 in 16 mi Calm Calm - - Fog Light Fog
4:20 AM 46.4 °F - 46.4 °F 100% 29.89 in 6.2 mi SSE 2.3 mph - N/A Fog Shallow Fog
4:50 AM 46.4 °F - 46.4 °F 100% 29.89 in 6.2 mi Variable 1.2 mph - N/A Fog Shallow Fog
5:00 AM 46 °F - 45 °F 94% 29.90 in 12 mi SSE 2.2 mph - - Fog Light Fog
5:20 AM 44.6 °F - 44.6 °F 100% 29.89 in 6.2 mi ESE 2.3 mph - N/A Fog Shallow Fog
5:50 AM 44.6 °F - 44.6 °F 100% 29.89 in 6.2 mi WSW 1.2 mph - N/A Fog Shallow Fog
6:00 AM 45 °F - 44 °F 95% 29.89 in 12 mi WSW 2.2 mph - - Fog Light Fog
6:20 AM 44.6 °F - 44.6 °F 100% 29.89 in 6.2 mi SW 1.2 mph - N/A Fog Shallow Fog
6:50 AM 48.2 °F - 48.2 °F 100% 29.89 in 6.2 mi Variable 1.2 mph - N/A Fog Shallow Fog
7:00 AM 47 °F - 46 °F 97% 29.89 in 11 mi SW 2.2 mph - - Fog Patches of Fog
7:20 AM 50.0 °F - 48.2 °F 94% 29.89 in - South 6.9 mph - N/A   Clear
7:50 AM 53.6 °F - 48.2 °F 82% 29.89 in - SSE 5.8 mph - N/A   Clear
8:00 AM 53 °F - 48 °F 76% 29.90 in 14 mi SSE 4.5 mph - -   Scattered Clouds
8:20 AM 55.4 °F - 46.4 °F 72% 29.89 in - SSE 6.9 mph - N/A   Clear
8:50 AM 55.4 °F - 46.4 °F 72% 29.89 in 6.2 mi South 8.1 mph - N/A   Mostly Cloudy
9:00 AM 56 °F - 46 °F 59% 29.89 in 16 mi South 6.7 mph - -   Scattered Clouds
9:20 AM 57.2 °F - 48.2 °F 72% 29.89 in 6.2 mi South 6.9 mph - N/A   Mostly Cloudy
9:50 AM 59.0 °F - 48.2 °F 67% 29.89 in 6.2 mi SSW 6.9 mph - N/A   Mostly Cloudy
10:20 AM 59.0 °F - 46.4 °F 63% 29.86 in 6.2 mi South 6.9 mph - N/A   Scattered Clouds
10:50 AM 60.8 °F - 44.6 °F 55% 29.86 in 6.2 mi South 6.9 mph - N/A   Scattered Clouds
11:00 AM 60 °F - 45 °F 46% 29.88 in 17 mi South 6.7 mph - -   Scattered Clouds
11:20 AM 60.8 °F - 44.6 °F 55% 29.86 in 6.2 mi SW 8.1 mph - N/A   Scattered Clouds
11:50 AM 60.8 °F - 46.4 °F 59% 29.86 in 6.2 mi WSW 8.1 mph - N/A   Mostly Cloudy
12:00 PM 61 °F - 47 °F 49% 29.87 in 19 mi WSW 8.9 mph - -   Mostly Cloudy
12:20 PM 62.6 °F - 46.4 °F 55% 29.86 in 6.2 mi SSW 10.4 mph - N/A   Mostly Cloudy
12:50 PM 62.6 °F - 42.8 °F 48% 29.83 in 6.2 mi SSW 6.9 mph - N/A   Scattered Clouds
1:00 PM 63 °F - 45 °F 40% 29.85 in 22 mi SSW 6.7 mph - -   Mostly Cloudy
1:20 PM 64.4 °F - 46.4 °F 52% 29.83 in 6.2 mi WSW 6.9 mph - N/A   Scattered Clouds
1:50 PM 62.6 °F - 42.8 °F 48% 29.83 in 6.2 mi SW 8.1 mph - N/A   Scattered Clouds
2:00 PM 63 °F - 43 °F 36% 29.84 in 22 mi WSW 6.7 mph - -   Mostly Cloudy
2:20 PM 60.8 °F - 46.4 °F 59% 29.83 in 6.2 mi SW 11.5 mph - N/A Rain Rain Showers
2:50 PM 57.2 °F - 51.8 °F 82% 29.86 in 6.2 mi West 12.7 mph - N/A Rain Light Rain Showers
3:00 PM 58 °F - 53 °F 78% 29.86 in 8 mi West 13.4 mph - - Rain Light Rain Showers
3:20 PM 53.6 °F - 50.0 °F 88% 29.89 in 3.7 mi West 16.1 mph - N/A Rain Rain Showers
3:50 PM 53.6 °F - 51.8 °F 94% 29.89 in 6.2 mi West 9.2 mph - N/A Rain Light Rain Showers
4:00 PM 54 °F - 51 °F 87% 29.88 in 9 mi West 8.9 mph - - Rain Light Rain Showers
4:20 PM 53.6 °F - 50.0 °F 88% 29.89 in 6.2 mi West 6.9 mph - N/A Rain Light Rain Showers
4:50 PM 55.4 °F - 51.8 °F 88% 29.89 in 6.2 mi West 9.2 mph - N/A   Mostly Cloudy
5:00 PM 55 °F - 51 °F 83% 29.89 in 22 mi West 8.9 mph - - Rain Light Rain Showers
5:20 PM 55.4 °F - 50.0 °F 82% 29.89 in 6.2 mi West 9.2 mph - N/A   Mostly Cloudy
5:50 PM 55.4 °F - 48.2 °F 77% 29.89 in 6.2 mi West 12.7 mph - N/A   Mostly Cloudy
6:00 PM 55 °F - 48 °F 71% 29.89 in 22 mi West 13.4 mph - -   Mostly Cloudy
6:20 PM 55.4 °F - 48.2 °F 77% 29.89 in 6.2 mi West 9.2 mph - N/A   Mostly Cloudy
6:50 PM 53.6 °F - 44.6 °F 72% 29.92 in 6.2 mi West 13.8 mph - N/A   Mostly Cloudy
7:00 PM 54 °F - 46 °F 65% 29.92 in 22 mi West 13.4 mph - -   Mostly Cloudy
7:20 PM 53.6 °F - 44.6 °F 72% 29.92 in 6.2 mi West 11.5 mph - N/A   Mostly Cloudy
7:50 PM 51.8 °F - 44.6 °F 76% 29.92 in 6.2 mi West 6.9 mph - N/A   Mostly Cloudy
8:00 PM 52 °F - 45 °F 68% 29.94 in 25 mi West 6.7 mph - -   Partly Cloudy
8:20 PM 51.8 °F - 44.6 °F 76% 29.92 in 6.2 mi West 6.9 mph - N/A   Mostly Cloudy
8:50 PM 50.0 °F - 44.6 °F 82% 29.95 in 6.2 mi West 4.6 mph - N/A   Scattered Clouds
9:00 PM 51 °F - 44 °F 70% 29.95 in 25 mi West 4.5 mph - -   Partly Cloudy
9:20 PM 50.0 °F - 44.6 °F 82% 29.95 in 6.2 mi West 4.6 mph - N/A   Scattered Clouds
9:50 PM 51.8 °F - 44.6 °F 76% 29.95 in 6.2 mi WNW 8.1 mph - N/A   Scattered Clouds
10:00 PM 51 °F - 45 °F 73% 29.97 in 25 mi WNW 6.7 mph - -   Mostly Cloudy
10:20 PM 50.0 °F - 44.6 °F 82% 29.98 in - WNW 9.2 mph - N/A   Clear
10:50 PM 50.0 °F - 42.8 °F 76% 29.98 in - West 10.4 mph - N/A   Clear
11:00 PM 49 °F - 43 °F 74% 29.99 in 25 mi West 11.2 mph - -   Scattered Clouds
11:20 PM 48.2 °F - 42.8 °F 82% 29.98 in - West 8.1 mph - N/A   Clear
11:50 PM 46.4 °F 42.4 °F 42.8 °F 87% 29.98 in - West 8.1 mph - N/A   Clear